SCP
1 1 1 1 1 2 2 1 1 1 1 1 1 1 0 0 0 0 0 0 0 0 0 0 0 0 0 0 0 0 0 0 0 0 0 0 0 0 0 0 0 0 0
2 2 2 2 2 2 2 2 1 1 1 1 1 1 1 0 0 0 0 0 0 0 0 0 0 0 0 0 0 0 0 0 0 0 0 0 0 0 0 0 0 0 0
2 2 2 2 2 2 2 2 2 2 1 1 1 1 1 1 0 0 0 0 0 0 0 0 0 0 0 0 0 0 0 0 0 0 0 0 0 0 0 0 0 0 0
2 2 2 2 2 2 2 2 2 2 2 1 1 1 1 1 0 0 0 0 0 0 0 0 0 0 0 0 0 0 0 0 0 0 0 0 0 0 0 0 0 0 0
2 2 2 2 2 2 2 2 2 2 1 1 1 1 1 1 0 0 0 0 0 0 0 0 0 0 0 0 1 1 1 1 0 0 0 0 0 0 0 0 0 0 0
2 2 2 2 2 2 2 2 2 2 1 1 1 1 1 1 1 0 0 0 0 0 0 0 1 1 1 1 1 1 1 1 1 0 0 0 0 0 0 0 0 0 0
2 2 2 2 2 2 2 2 2 1 1 1 1 1 1 1 1 0 0 0 0 0 1 1 1 1 1 1 1 1 1 1 1 1 0 0 0 0 0 0 0 0 0
1 2 2 2 2 2 2 1 1 1 1 1 1 1 1 1 1 1 1 0 0 0 0 1 1 1 1 0 1 1 1 1 1 1 1 0 0 0 0 0 0 0 0
1 1 1 1 1 1 1 1 1 1 1 1 1 1 1 1 1 1 1 0 0 0 0 0 1 1 0 0 0 1 1 1 1 1 1 1 0 0 0 0 0 0 0
1 1 1 1 1 1 1 1 1 1 1 1 1 1 1 1 1 1 1 0 0 0 0 0 0 0 0 0 0 0 0 1 1 1 0 0 0 0 0 0 0 0 0
1 1 1 1 1 1 1 1 1 1 1 1 1 1 1 1 1 1 1 0 0 0 0 0 0 0 0 0 0 0 0 0 0 0 0 0 0 0 0 0 0 0 0
1 1 1 1 1 1 2 1 1 1 1 1 1 1 1 1 1 1 0 0 0 0 0 0 0 0 0 0 0 0 0 0 0 0 0 0 0 0 0 0 0 0 0
1 2 2 2 2 2 2 1 1 1 1 1 1 1 1 1 1 1 0 0 0 0 0 0 0 0 0 0 0 0 0 0 0 0 0 0 0 0 0 0 0 0 0
2 2 2 2 2 2 2 1 1 1 1 1 1 1 1 1 1 1 1 0 0 0 0 0 0 0 0 0 0 0 0 0 0 0 0 0 0 0 0 0 0 0 0
2 2 2 2 2 2 2 1 1 1 1 1 1 1 1 1 1 1 0 0 0 0 0 0 0 0 0 0 0 0 0 0 0 0 0 0 0 0 0 0 0 0 0
2 2 2 2 2 2 2 1 1 1 1 1 1 1 1 1 1 0 0 0 0 0 0 0 0 0 0 0 0 0 0 0 0 0 0 0 0 0 0 0 0 0 0
2 2 2 2 2 2 2 1 1 1 1 1 1 1 1 1 0 0 0 0 0 0 0 0 0 0 0 0 0 0 0 0 0 0 0 0 0 0 0 0 0 0 0
2 2 2 2 2 2 2 1 1 1 1 1 1 1 1 1 0 0 0 0 0 0 0 0 0 0 0 0 0 0 0 0 0 0 0 0 0 0 0 0 0 0 0
2 2 2 2 2 2 2 2 1 1 1 1 1 1 1 1 0 0 0 0 0 0 0 0 0 0 0 0 0 0 0 0 0 0 0 0 0 0 0 0 0 0 0
3 2 2 2 2 2 2 2 2 1 1 1 1 1 1 0 0 0 0 0 0 0 0 0 0 0 0 0 0 0 0 0 0 0 0 0 0 0 0 0 0 0 0
2 2 2 2 2 2 2 2 1 1 1 1 1 0 0 0 0 0 0 0 0 0 0 0 0 0 0 0 0 0 0 0 0 0 0 0 0 0 0 0 0 0 0
2 2 2 2 2 2 2 1 1 1 1 0 0 0 0 0 0 0 0 0 0 0 0 0 0 0 0 0 0 0 0 0 0 0 0 0 0 0 0 0 0 0 0
2 2 2 2 2 2 1 1 1 1 0 0 0 0 0 0 0 0 0 0 0 0 0 0 0 0 0 0 0 0 0 0 0 0 0 0 0 0 0 0 0 0 0
2 2 2 2 1 1 1 1 1 0 0 0 0 0 0 0 0 0 0 0 0 0 0 0 0 0 0 0 0 0 0 0 0 0 0 0 0 0 0 0 0 0 0
1 1 1 1 1 1 1 0 0 0 0 0 0 0 0 0 0 0 0 0 0 0 0 0 0 0 0 0 0 0 0 0 0 0 0 0 0 0 0 0 0 0 0
1 1 1 1 1 0 0 0 0 0 0 0 0 0 0 0 0 0 0 0 0 0 0 0 0 0 0 0 0 0 0 0 0 0 0 0 0 0 0 0 0 0 0
Wind_Speed
13 12 12 12 11 9 8 8 7 6 4 4 4 4 3 3 3 3 4 5 5 4 3 2 3 2 2 2 2 1 2 2 2 2 1 2 4 4 4 4 4 5 6
13 12 11 12 11 10 9 8 7 8 7 4 3 2 2 2 3 2 3 4 4 5 5 4 3 3 2 2 2 2 1 2 2 2 1 1 2 2 5 4 4 5 4
15 13 12 11 11 10 9 8 7 7 7 5 4 3 2 2 2 2 3 4 5 5 4 4 3 3 3 3 4 4 4 3 3 2 2 1 2 2 2 4 4 4 3
14 14 13 11 10 10 9 7 7 6 6 5 5 5 4 4 3 2 3 3 4 5 4 4 4 4 3 3 5 5 4 4 4 3 3 3 1 1 1 2 2 3 3
12 13 12 11 9 9 9 7 6 6 5 4 4 4 3 3 2 2 2 2 3 4 4 5 5 5 4 4 5 3 4 4 4 3 2 2 2 3 2 2 2 2 3
11 11 11 10 8 8 8 8 7 6 5 5 4 4 4 3 2 2 2 2 2 3 4 5 4 5 4 5 5 5 5 4 4 3 2 2 2 2 2 3 3 3 3
11 11 11 10 8 8 7 7 7 6 5 5 4 4 3 3 3 2 2 2 2 2 3 4 3 4 4 5 5 5 5 5 5 4 3 3 3 2 2 3 3 3 2
10 10 11 10 8 8 7 7 6 5 5 4 4 3 2 2 2 2 2 1 2 2 2 2 3 3 4 5 3 3 4 4 4 5 4 3 3 3 2 2 2 2 2
12 11 10 10 8 8 7 7 6 5 4 4 3 2 2 1 1 1 1 1 1 2 0 1 1 2 2 2 2 2 3 2 3 4 4 4 3 3 2 2 2 2 2
10 11 11 10 9 7 7 7 6 5 4 3 3 3 2 1 1 0 0 1 1 2 2 2 1 1 1 1 1 1 1 2 2 3 3 3 3 3 2 2 2 2 3
10 10 10 10 10 8 8 7 7 5 4 3 3 3 3 2 2 2 2 2 2 2 2 2 2 2 1 1 0 1 2 2 2 2 2 2 3 2 2 2 1 1 1
10 11 11 10 9 9 8 7 6 5 4 4 4 4 3 3 3 3 3 3 3 2 2 2 2 2 2 2 1 1 1 1 1 1 1 2 2 2 2 1 1 1 1
11 11 10 9 8 8 8 7 7 6 5 5 5 4 4 4 4 4 3 3 3 3 4 3 3 3 3 3 2 2 2 2 2 1 1 2 2 2 1 1 1 1 1
11 11 10 9 9 8 7 7 7 7 6 5 6 5 5 5 5 5 4 4 4 5 5 5 4 4 4 4 4 3 3 3 3 3 3 3 2 2 1 1 1 1 1
11 11 10 9 9 9 8 7 7 7 6 6 6 6 5 5 5 5 5 5 5 5 5 5 5 5 5 5 5 4 4 4 4 4 4 4 6 7 5 3 3 2 1
10 11 11 10 9 9 8 8 7 7 6 6 6 6 5 5 5 5 5 5 5 5 6 6 6 7 6 8 9 6 5 4 4 4 4 4 5 8 8 9 8 6 2
11 11 10 10 9 8 8 8 7 7 7 6 6 6 6 5 5 6 6 6 6 6 6 6 6 7 8 10 9 9 5 5 4 4 4 4 5 5 5 6 8 8 9
11 10 9 10 9 9 8 7 8 7 7 7 6 6 5 6 6 6 6 6 5 6 5 6 6 6 8 10 9 8 5 5 6 6 6 5 5 6 5 5 7 8 7
9 10 10 10 10 10 9 8 8 7 7 7 6 6 6 6 6 6 5 5 5 5 6 6 6 7 8 11 9 6 4 5 7 7 7 7 6 8 7 6 6 7 6
9 9 10 10 9 9 9 8 8 7 7 7 6 6 6 6 6 5 5 4 5 5 6 7 7 7 7 10 11 7 4 5 6 6 7 10 9 9 8 5 5 6 4
10 10 10 9 8 8 8 8 8 7 7 7 7 7 6 6 6 5 4 4 5 6 6 7 7 7 8 10 12 11 5 5 6 6 6 6 10 10 10 8 6 5 3
10 10 9 9 8 8 8 9 9 8 8 8 8 7 6 6 6 5 5 5 4 5 5 5 6 6 6 8 10 12 11 8 7 6 5 5 9 10 10 8 9 9 6
9 9 10 10 8 8 8 9 9 8 8 8 8 7 7 6 5 5 4 3 3 3 4 4 5 5 5 6 10 11 11 10 6 5 7 6 6 5 6 8 9 7 5
8 8 10 10 8 8 8 8 9 8 8 8 8 7 7 7 6 5 5 4 4 3 4 4 4 4 4 4 4 4 5 6 5 4 4 4 5 4 4 5 5 5 5
7 8 8 9 9 9 9 9 8 9 9 8 7 7 7 8 8 8 7 7 6 4 4 4 4 4 4 3 4 3 3 3 4 2 2 2 2 3 4 4 4 4 4
7 8 9 9 9 9 9 8 7 8 8 7 7 6 7 7 7 8 8 13 10 11 12 10 7 6 5 3 5 6 6 6 6 4 3 4 3 4 4 3 4 4 4
Wind_Direction
169 162 163 163 161 159 164 169 177 168 177 186 189 197 204 207 209 206 190 192 204 196 203 222 175 205 217 194 195 202 220 235 237 249 241 229 213 203 202 212 202 198 193
162 161 167 168 166 167 172 174 182 177 187 193 202 199 200 213 211 211 182 199 202 201 201 205 205 197 209 223 224 215 240 254 231 216 230 275 264 239 214 200 206 205 192
166 166 172 171 169 172 178 182 181 177 188 187 186 201 184 225 226 208 194 201 204 210 214 197 211 196 207 210 217 214 218 239 253 223 194 214 235 261 236 212 206 195 189
166 168 174 176 175 173 176 174 171 173 180 186 193 193 194 206 219 217 195 196 210 217 213 205 208 214 220 209 219 217 220 226 246 248 224 226 221 219 291 274 226 203 199
169 167 171 170 172 173 171 168 167 175 179 191 201 202 211 210 213 206 178 196 209 221 222 214 207 208 222 223 225 223 221 222 232 243 231 233 245 224 214 253 266 249 217
159 157 160 159 166 166 162 159 161 172 176 188 199 204 215 214 220 224 189 203 211 213 219 223 215 211 219 226 227 225 226 230 240 245 253 233 217 229 224 228 236 240 238
145 148 151 154 158 158 157 154 158 164 173 186 196 203 213 216 220 239 225 229 231 217 219 226 214 217 221 226 225 221 234 230 230 231 242 245 236 231 225 218 235 244 248
143 149 151 150 153 155 151 149 154 161 171 180 185 193 202 218 226 228 241 245 268 254 223 216 221 226 231 238 225 223 226 227 227 237 237 242 250 251 242 226 216 245 269
149 153 147 145 148 151 147 147 144 147 156 160 157 160 180 220 248 218 226 277 293 296 333 206 236 247 250 254 243 228 231 225 229 239 239 241 253 260 259 250 216 199 239
151 145 142 142 141 148 139 133 132 131 130 131 145 156 161 170 143 62 56 3 12 1 5 10 4 331 317 297 257 260 240 226 239 241 246 250 258 258 255 248 245 216 209
141 139 135 135 138 141 134 129 128 126 124 125 118 103 107 103 89 71 53 46 39 32 25 24 19 4 2 357 317 267 256 245 254 256 249 252 256 263 262 252 230 229 199
130 132 128 130 133 130 128 127 127 128 125 118 114 103 98 93 85 76 62 57 54 45 41 36 32 17 18 30 29 352 346 320 312 312 300 288 283 280 287 290 260 245 195
128 127 126 126 126 124 124 125 126 125 124 120 113 102 94 89 83 77 70 65 63 54 42 42 37 29 25 30 31 31 27 15 13 0 352 354 357 342 337 341 331 290 264
131 132 129 127 124 122 120 122 123 120 121 115 107 99 91 87 84 80 69 65 64 59 47 42 39 39 35 32 31 31 33 33 32 24 24 22 24 18 359 13 351 329 328
140 137 135 131 129 127 126 123 116 112 112 109 104 99 93 88 84 81 74 67 63 61 54 49 44 39 40 35 31 32 39 38 39 37 39 48 63 61 43 37 23 12 12
143 139 137 136 134 133 132 124 116 113 111 107 103 99 94 88 85 87 84 77 71 65 59 53 50 47 42 33 40 43 43 44 44 44 45 56 61 69 66 62 55 44 28
146 142 141 139 137 135 131 129 125 122 114 107 102 96 93 86 76 77 77 72 68 67 66 62 61 58 39 32 40 46 48 49 46 44 41 44 54 58 66 63 58 51 48
142 140 139 136 136 134 129 127 127 125 119 111 103 98 95 89 80 76 74 71 71 69 69 67 65 62 44 33 35 39 57 58 53 50 48 50 41 39 53 72 66 56 47
132 137 141 139 136 138 136 132 128 124 118 112 106 101 98 93 87 85 81 77 78 78 76 72 68 63 46 32 31 41 68 70 63 56 49 48 44 37 50 71 75 71 64
127 131 132 129 130 132 135 133 126 119 115 110 103 98 95 94 90 85 84 85 83 84 81 73 66 60 50 34 29 31 71 78 73 65 54 46 44 42 47 61 67 67 59
123 123 123 124 122 126 128 123 117 112 111 108 104 99 98 98 92 87 83 87 92 91 87 82 72 61 51 41 35 35 50 70 73 66 56 44 44 50 51 54 55 52 47
125 122 119 118 120 122 123 120 116 114 112 109 103 97 91 91 92 87 87 87 93 98 94 89 80 65 52 47 46 50 52 58 72 71 66 56 51 54 51 50 38 35 38
127 127 126 122 122 122 123 124 121 121 118 114 108 101 94 85 86 92 94 97 98 101 101 96 88 77 64 57 58 64 63 63 70 72 72 68 58 49 52 52 41 36 36
130 130 131 129 123 120 118 119 125 126 124 119 114 111 106 95 76 64 65 62 48 65 83 87 92 89 70 51 41 71 78 82 79 78 75 61 47 45 41 46 48 49 44
130 131 132 128 125 120 118 122 126 131 128 126 124 119 108 100 83 68 51 61 50 39 64 72 71 81 77 37 22 43 55 50 58 54 82 78 67 66 62 58 49 43 41
134 132 130 128 128 126 125 127 131 134 135 135 136 133 127 121 114 105 86 55 61 59 63 67 80 77 79 71 53 48 43 41 36 44 68 63 53 58 61 59 57 52 39